User: anonymous
Location: Caltech
(34.1382°N, 118.1253°W)
Time: 04:04:34
(UTC-07:00)
Language:

Cosmos 1833 Rocket - Orbit

View from above orbital plane
View from above orbital plane
View from above satellite
View from above satellite

Ground track
Ground track

The orbit data is extracted from the following two-line orbital elements,

1 17590U 87027B   14107.93169259  .00000328  00000-0  18803-3 0  6581
2 17590 071.0042 064.5829 0007248 269.3504 090.6789 14.16628672400367
Epoch (UTC): 17 April 2014 22:21:38
Eccentricity: 0.0007248
inclination: 71.0042°
perigee height: 831 km
apogee height: 842 km
right ascension of ascending node: 64.5829°
argument of perigee: 269.3504°
revolutions per day: 14.16628672
mean anomaly at epoch: 90.6789°
orbit number at epoch: 40036

The dashed part of the orbit path shows where the satellite is in the earth's shadow,  

DLR